Location: Unnamed
(48.6007°N, 2.4808°E)
Time: 21:18:43
(UTC+02:00)

METEOR M2 - Pass Details

Date: 30 March 2023
Orbit: 818 x 827 km, 98.4° (Epoch: 01 June)

Event Time Altitude Azimuth Distance (km) Brightness Sun altitude
Rises 06:56:07 0° 28° (NNE) 3,374 ? -6.8°
Reaches altitude 10° 06:59:22 10° 48° (NE) 2,433 ? -6.3°
Maximum altitude 07:02:49 17° 88° (E) 1,970 ? -5.8°
Drops below altitude 10° 07:06:15 10° 128° (SE) 2,417 ? -5.2°
Sets 07:09:26 0° 148° (SSE) 3,342 ? -4.7°
